Location: Bow
(51.5261°N, 0.0167°W)
Time: 11:04:01
(UTC+00:00)

Tianhe-1 - Visible Passes

Search period start: 25 June 2021 00:00
Search period end: 05 July 2021 00:00
Orbit: 375 x 385 km, 41.5° (Epoch: 25 June)

Date Brightness Start Highest point End Pass type
(mag) Time Alt. Az. Time Alt. Az. Time Alt. Az.
25 Jun 3.2 02:34:01 10° SSW 02:35:19 12° S 02:36:44 10° SE visible
27 Jun 3.0 02:09:22 13° S 02:09:35 13° S 02:11:13 10° SE visible
28 Jun 3.1 02:43:15 10° SW 02:44:39 13° S 02:46:06 10° SSE visible
29 Jun 3.5 01:45:12 11° SSE 01:45:12 11° SSE 01:45:23 10° SSE visible
